[[{"header":{"parameterUnit":"m.s-1","parameterCategory":1,"la1":30.2991,"la2":30.254,"lo1":-89.0895,"lo2":-89.0444,"dy":0.0017,"dx":0.0017,"nx":28,"ny":28,"refTime":"2023-08-28T09:00:00:Z","depth":0,"parameterNumber":2,"parameterNumberName":"U-component_of_WINDS"},"data":[0,0,0,0,0,0,0,0,0,0,0,0,0,0,0,0,0,0,0,0,0,0,0,0,0,0,0,0,0,0,0,0,0,0,0,0,0,0,0,0,0,0,0,0,0,0,0,0,0,0,0,0,0,0,0,0,0,0,-0.4577,-0.4577,0,-0.4574,-0.4574,-0.4574,-0.4577,-0.4577,-0.4577,-0.4577,-0.4572,-0.4572,-0.4572,0,0,0,0,0,0,0,0,0,0,0,0,0,-0.4581,-0.4581,-0.4577,-0.4577,-0.4576,-0.4574,-0.4574,-0.4574,-0.4577,-0.4577,-0.4577,-0.4577,-0.4572,-0.4572,-0.4572,0,0,0,0,0,0,0,0,0,0,0,0,0,-0.4579,-0.4581,-0.4577,-0.4578,-0.4578,-0.4574,-0.4574,-0.4574,-0.4577,-0.4577,-0.4577,-0.4577,-0.4572,-0.4572,-0.4572,-0.4566,0,0,-0.4571,-0.457,0,0,0,0,0,0,0,0,-0.4579,-0.4578,-0.4578,-0.4578,-0.4578,-0.4576,-0.4573,-0.4571,-0.4577,-0.4577,-0.4577,-0.4577,-0.4573,-0.4573,-0.4572,-0.4565,-0.4565,-0.4571,-0.457,-0.457,-0.457,0,0,0,0,0,0,0,-0.4579,-0.4579,-0.4575,-0.4578,-0.4578,-0.4577,-0.4577,-0.4573,-0.4574,-0.4577,-0.4577,-0.4577,-0.4573,-0.4572,-0.4572,-0.4565,-0.4571,-0.457,-0.457,-0.457,-0.455,-0.455,0,0,0,0,0,0,-0.4579,-0.4579,-0.4575,-0.4575,-0.4579,-0.4577,-0.4577,-0.4576,-0.4574,-0.4574,-0.4577,-0.4577,-0.4573,-0.4572,-0.4571,-0.4562,-0.457,-0.457,-0.457,-0.4551,-0.455,-0.455,0,0,0,0,0,0,-0.4579,-0.4579,-0.4576,-0.4577,-0.4577,-0.4577,-0.4576,-0.4576,-0.4575,-0.4574,-0.4574,-0.4576,-0.4573,-0.4572,-0.4567,-0.4562,-0.457,-0.4569,-0.4551,-0.4551,-0.455,-0.4545,0,0,0,0,0,0,-0.458,-0.4579,-0.4578,-0.4577,-0.4576,-0.4572,-0.4576,-0.4576,-0.4575,-0.4575,-0.4573,-0.4573,-0.4573,-0.4567,-0.4566,-0.4562,-0.4569,-0.4551,-0.4551,-0.455,-0.4546,-0.4545,-0.4544,0,0,0,0,0,-0.458,-0.4577,-0.4578,-0.4577,-0.4575,-0.4572,-0.4571,-0.4572,-0.4574,-0.4572,-0.4571,-0.4573,-0.4563,-0.4566,-0.4565,-0.4561,-0.4552,-0.4551,-0.455,-0.4546,-0.4545,-0.4544,0,0,0,0,0,0,-0.4577,-0.4577,-0.4578,-0.4575,-0.4573,-0.4572,-0.457,-0.4571,-0.4568,-0.4569,-0.4569,-0.4569,-0.4562,-0.4561,-0.4565,-0.4553,-0.4557,-0.4557,-0.4555,-0.4553,-0.4552,-0.4553,-0.4569,0,0,0,0,0,-0.4576,-0.4574,-0.4574,-0.4571,-0.457,-0.457,-0.4569,-0.4569,-0.4567,-0.4567,-0.4565,-0.4562,-0.4558,-0.4556,-0.4552,-0.4545,-0.4544,-0.4542,-0.4541,-0.454,-0.4539,-0.4533,-0.4531,-0.4548,-0.4548,-0.4548,0,0,-0.4574,-0.4574,-0.4573,-0.457,-0.4569,-0.4566,-0.457,-0.4567,-0.4564,-0.4566,-0.456,-0.4559,-0.4556,-0.4549,-0.4546,-0.4548,-0.4534,-0.4539,-0.4538,-0.4538,-0.4532,-0.453,-0.4529,-0.4547,-0.4547,-0.4548,0,0,-0.4569,-0.4569,-0.4566,-0.4564,-0.4562,-0.4562,-0.4561,-0.4559,-0.4558,-0.4553,-0.4554,-0.4549,-0.4543,-0.454,-0.4538,-0.4528,-0.4529,-0.4527,-0.4522,-0.4516,-0.4514,-0.4513,-0.4508,-0.4506,-0.4526,-0.4526,-0.4526,0,-0.4566,-0.4563,-0.4564,-0.456,-0.4558,-0.456,-0.4555,-0.4553,-0.455,-0.4548,-0.455,-0.4541,-0.4539,-0.453,-0.4528,-0.4526,-0.4523,-0.4527,-0.4515,-0.4513,-0.4512,-0.4507,-0.4505,-0.4526,-0.4526,-0.4526,-0.4526,0,-0.4559,-0.4556,-0.4553,-0.455,-0.4547,-0.4543,-0.4542,-0.454,-0.4539,-0.4538,-0.4531,-0.4528,-0.4523,-0.4521,-0.4522,-0.4512,-0.4513,-0.4515,-0.4519,-0.451,-0.4505,-0.4504,-0.4525,-0.4526,-0.4526,-0.4526,0,0,-0.4553,-0.4549,-0.4548,-0.4545,-0.4542,-0.4539,-0.4534,-0.4529,-0.4526,-0.4523,-0.4517,-0.4511,-0.4512,-0.4509,-0.4508,-0.4503,-0.4493,-0.4505,-0.4505,-0.4502,-0.4479,-0.4477,-0.4475,-0.4493,-0.4493,-0.4493,-0.4479,0,-0.4547,-0.4539,-0.4538,-0.453,-0.4526,-0.4526,-0.4521,-0.4518,-0.4516,-0.4511,-0.4508,-0.4503,-0.4506,-0.4504,-0.4499,-0.4495,-0.4488,-0.4496,-0.4486,-0.4486,-0.4486,-0.4473,-0.4471,-0.4458,-0.4477,-0.4477,-0.4477,0,-0.4539,-0.4535,-0.4527,-0.4522,-0.452,-0.4516,-0.451,-0.4506,-0.4501,-0.4499,-0.4495,-0.4494,-0.4487,-0.4491,-0.4479,-0.4485,-0.448,-0.4478,-0.4477,-0.4476,-0.448,-0.4469,-0.4454,-0.4452,-0.4474,-0.4474,-0.4474,0,-0.4533,-0.4526,-0.452,-0.4518,-0.4512,-0.4509,-0.4506,-0.4501,-0.4498,-0.4492,-0.4489,-0.4482,-0.4479,-0.4473,-0.4469,-0.4473,-0.4457,-0.4461,-0.4454,-0.4454,-0.4451,-0.4451,-0.4433,-0.4449,-0.4449,-0.4449,-0.4449,0,-0.4526,-0.452,-0.4517,-0.4513,-0.4506,-0.4505,-0.4497,-0.4494,-0.4489,-0.4483,-0.4483,-0.4477,-0.4474,-0.4466,-0.4464,-0.4453,-0.4452,-0.4449,-0.4448,-0.4449,-0.4449,-0.4445,-0.4446,-0.4449,-0.4449,-0.4449,-0.4449,0,-0.4519,-0.4517,-0.451,-0.4505,-0.4503,-0.4498,-0.4492,-0.4487,-0.4485,-0.4477,-0.4475,-0.447,-0.4461,-0.4457,-0.4447,-0.4445,-0.4432,-0.4432,-0.4434,-0.4433,-0.4425,-0.4426,-0.4404,-0.4401,-0.442,-0.442,-0.442,0,-0.4515,-0.451,-0.4504,-0.45,-0.4497,-0.4491,-0.4487,-0.4484,-0.448,-0.4472,-0.4467,-0.4458,-0.4451,-0.4437,-0.4431,-0.4422,-0.4422,-0.4415,-0.442,-0.442,-0.442,-0.4419,-0.4418,-0.4414,-0.4413,-0.4413,-0.4413,0,-0.4506,-0.4504,-0.4499,-0.4492,-0.4487,-0.4481,-0.4476,-0.4472,-0.4468,-0.4462,-0.4453,-0.4448,-0.4436,-0.4427,-0.4417,-0.4412,-0.4411,-0.4411,-0.4409,-0.4409,-0.4409,-0.4407,-0.443,-0.4412,-0.4412,-0.4412,-0.4412,-0.4412,-0.4499,-0.4494,-0.4489,-0.4482,-0.4477,-0.4471,-0.4465,-0.4461,-0.4454,-0.4444,-0.4443,-0.4432,-0.4424,-0.4411,-0.4406,-0.4396,-0.4398,-0.4395,-0.4394,-0.4393,-0.4391,-0.4411,-0.4395,-0.4395,-0.4395,-0.4395,-0.4395,0,-0.4489,-0.4485,-0.4478,-0.447,-0.4464,-0.4464,-0.4457,-0.4451,-0.4442,-0.4435,-0.4428,-0.4416,-0.4406,-0.4399,-0.4388,-0.4381,-0.438,-0.4378,-0.4378,-0.4377,-0.4392,-0.4394,-0.4379,-0.4379,-0.4379,-0.4379,-0.4379,-0.4379,-0.4483,-0.4474,-0.4472,-0.4459,-0.4454,-0.4445,-0.444,-0.4434,-0.4428,-0.4415,-0.4407,-0.4402,-0.4394,-0.4382,-0.4372,-0.437,-0.4365,-0.4363,-0.4361,-0.4375,-0.4376,-0.4378,-0.438,-0.4362,-0.4362,-0.4347,-0.4346,-0.4346]},{"header":{"parameterUnit":"m.s-1","parameterCategory":1,"la1":30.2991,"la2":30.254,"lo1":-89.0895,"lo2":-89.0444,"dy":0.0017,"dx":0.0017,"nx":28,"ny":28,"refTime":"2023-08-28T09:00:00:Z","depth":0,"parameterNumber":3,"parameterNumberName":"V-component_of_WINDS"},"data":[0,0,0,0,0,0,0,0,0,0,0,0,0,0,0,0,0,0,0,0,0,0,0,0,0,0,0,0,0,0,0,0,0,0,0,0,0,0,0,0,0,0,0,0,0,0,0,0,0,0,0,0,0,0,0,0,0,0,-2.9321,-2.932,0,-2.9199,-2.9197,-2.9196,-2.9142,-2.9142,-2.9142,-2.9143,-2.9008,-2.9005,-2.9001,0,0,0,0,0,0,0,0,0,0,0,0,0,-2.9499,-2.9496,-2.9322,-2.932,-2.9319,-2.9199,-2.9197,-2.9195,-2.9142,-2.9142,-2.9142,-2.9143,-2.901,-2.9005,-2.9001,0,0,0,0,0,0,0,0,0,0,0,0,0,-2.9404,-2.9496,-2.9322,-2.9278,-2.9273,-2.9199,-2.9197,-2.9195,-2.9142,-2.9142,-2.9143,-2.9143,-2.9011,-2.9006,-2.9,-2.8959,0,0,-2.8983,-2.898,0,0,0,0,0,0,0,0,-2.9409,-2.9397,-2.9286,-2.9281,-2.9275,-2.9186,-2.921,-2.9115,-2.9142,-2.9191,-2.9143,-2.9143,-2.9067,-2.9057,-2.9032,-2.8953,-2.8947,-2.8982,-2.8979,-2.8976,-2.8975,0,0,0,0,0,0,0,-2.9416,-2.9402,-2.9273,-2.9284,-2.9277,-2.926,-2.9247,-2.9192,-2.9128,-2.9187,-2.9183,-2.9169,-2.9064,-2.9038,-2.9029,-2.8945,-2.8982,-2.8977,-2.8974,-2.8972,-2.8819,-2.8818,0,0,0,0,0,0,-2.9431,-2.9408,-2.9277,-2.9269,-2.9344,-2.9257,-2.9242,-2.9214,-2.9129,-2.9116,-2.9169,-2.9167,-2.9048,-2.9036,-2.9024,-2.8967,-2.8976,-2.8971,-2.8968,-2.8819,-2.8818,-2.8818,0,0,0,0,0,0,-2.9435,-2.942,-2.9281,-2.9337,-2.9318,-2.9254,-2.9222,-2.9211,-2.9186,-2.9116,-2.9103,-2.9156,-2.9047,-2.9032,-2.8975,-2.8961,-2.8969,-2.8964,-2.882,-2.8819,-2.8818,-2.8854,0,0,0,0,0,0,-2.9441,-2.9422,-2.9409,-2.9338,-2.9316,-2.9238,-2.9222,-2.9209,-2.9177,-2.9174,-2.9099,-2.9087,-2.9046,-2.8983,-2.8969,-2.8954,-2.8959,-2.8821,-2.882,-2.8818,-2.8854,-2.8854,-2.8855,0,0,0,0,0,-2.9447,-2.9423,-2.9408,-2.9393,-2.9298,-2.9237,-2.9225,-2.918,-2.9177,-2.916,-2.9114,-2.909,-2.8965,-2.8978,-2.8961,-2.8944,-2.8822,-2.882,-2.8819,-2.8853,-2.8854,-2.8855,0,0,0,0,0,0,-2.9492,-2.9413,-2.9396,-2.9349,-2.93,-2.9229,-2.9207,-2.9183,-2.9133,-2.9132,-2.9076,-2.9059,-2.9006,-2.8969,-2.8985,-2.8897,-2.8891,-2.8886,-2.8923,-2.8923,-2.8924,-2.8933,-2.8954,0,0,0,0,0,-2.9497,-2.9457,-2.9389,-2.9354,-2.933,-2.9273,-2.9245,-2.9215,-2.9162,-2.914,-2.909,-2.9037,-2.8985,-2.8952,-2.8901,-2.8848,-2.8828,-2.8827,-2.8828,-2.8829,-2.8824,-2.8788,-2.8786,-2.8813,-2.8813,-2.8813,0,0,-2.9506,-2.9457,-2.9436,-2.9361,-2.9321,-2.9277,-2.9256,-2.9212,-2.9178,-2.9132,-2.9075,-2.9036,-2.8972,-2.8916,-2.8889,-2.8884,-2.8812,-2.8827,-2.8828,-2.8823,-2.8787,-2.8784,-2.8782,-2.8812,-2.8812,-2.8812,0,0,-2.9499,-2.9461,-2.9425,-2.9384,-2.9323,-2.9284,-2.9275,-2.9206,-2.9179,-2.9122,-2.9085,-2.9042,-2.8955,-2.891,-2.8876,-2.8847,-2.8821,-2.8832,-2.8834,-2.88,-2.8798,-2.8795,-2.8781,-2.8778,-2.8828,-2.8828,-2.8828,0,-2.9517,-2.9454,-2.9409,-2.9366,-2.9332,-2.9291,-2.9251,-2.9213,-2.9137,-2.9112,-2.9109,-2.8996,-2.8951,-2.8881,-2.8873,-2.8848,-2.8833,-2.884,-2.8802,-2.88,-2.8797,-2.8782,-2.8778,-2.883,-2.883,-2.8829,-2.8829,0,-2.9476,-2.9432,-2.941,-2.9339,-2.9303,-2.9262,-2.9207,-2.9175,-2.9147,-2.9107,-2.9045,-2.8989,-2.8924,-2.8905,-2.8877,-2.8829,-2.8827,-2.8814,-2.8806,-2.8796,-2.8782,-2.8777,-2.8832,-2.8831,-2.8831,-2.8831,0,0,-2.9497,-2.94,-2.9392,-2.9358,-2.9285,-2.9248,-2.9203,-2.9141,-2.9112,-2.906,-2.9017,-2.8943,-2.8929,-2.889,-2.8855,-2.8825,-2.8801,-2.8814,-2.8812,-2.8811,-2.8739,-2.8749,-2.8744,-2.8783,-2.8782,-2.8781,-2.8744,0,-2.9478,-2.9399,-2.9356,-2.9293,-2.9248,-2.9206,-2.9165,-2.9114,-2.9074,-2.9028,-2.8983,-2.893,-2.8917,-2.8892,-2.8861,-2.8811,-2.8785,-2.8813,-2.8739,-2.8737,-2.8755,-2.8737,-2.8748,-2.8715,-2.8738,-2.8737,-2.8737,0,-2.9447,-2.9397,-2.933,-2.9258,-2.9238,-2.9203,-2.914,-2.9098,-2.9036,-2.9009,-2.8964,-2.8929,-2.8874,-2.8872,-2.8793,-2.8813,-2.8779,-2.8749,-2.8747,-2.8736,-2.8735,-2.8723,-2.8704,-2.8698,-2.8728,-2.8729,-2.8729,0,-2.9465,-2.938,-2.9328,-2.93,-2.9216,-2.9192,-2.9155,-2.9094,-2.9058,-2.9001,-2.8976,-2.8914,-2.8879,-2.8829,-2.8776,-2.878,-2.87,-2.8695,-2.8672,-2.8673,-2.8657,-2.8658,-2.8629,-2.8639,-2.8639,-2.8639,-2.864,0,-2.9448,-2.9408,-2.9334,-2.9302,-2.9254,-2.9202,-2.9154,-2.9114,-2.9059,-2.9014,-2.8973,-2.8931,-2.8866,-2.8814,-2.8772,-2.871,-2.8695,-2.8668,-2.8657,-2.8671,-2.8674,-2.8647,-2.8647,-2.8638,-2.8638,-2.8639,-2.8639,0,-2.946,-2.941,-2.935,-2.9275,-2.9254,-2.9222,-2.9155,-2.9119,-2.9077,-2.9021,-2.9004,-2.8936,-2.8873,-2.8816,-2.8732,-2.8703,-2.8639,-2.8626,-2.866,-2.8654,-2.8634,-2.8635,-2.8585,-2.8573,-2.8594,-2.8594,-2.8594,0,-2.9453,-2.9421,-2.9342,-2.931,-2.9274,-2.9224,-2.9187,-2.9132,-2.9094,-2.9019,-2.8991,-2.8925,-2.887,-2.877,-2.871,-2.8644,-2.8628,-2.8614,-2.8617,-2.863,-2.8623,-2.8625,-2.8619,-2.8614,-2.8615,-2.8615,-2.8615,0,-2.9442,-2.9418,-2.9368,-2.9307,-2.9264,-2.9213,-2.916,-2.9136,-2.907,-2.9029,-2.8965,-2.8921,-2.8835,-2.8768,-2.8694,-2.8651,-2.862,-2.8614,-2.8605,-2.8617,-2.8637,-2.8623,-2.8659,-2.8615,-2.8615,-2.8615,-2.8615,-2.8615,-2.9442,-2.941,-2.9349,-2.9292,-2.9247,-2.9197,-2.9159,-2.9111,-2.9058,-2.8985,-2.8954,-2.8888,-2.8821,-2.8719,-2.8676,-2.862,-2.8614,-2.8602,-2.8598,-2.8595,-2.8596,-2.8648,-2.8607,-2.8606,-2.8606,-2.8606,-2.8606,0,-2.9427,-2.9385,-2.9334,-2.9261,-2.9215,-2.9192,-2.9131,-2.9093,-2.9036,-2.8978,-2.8924,-2.8847,-2.8781,-2.8715,-2.8644,-2.8611,-2.8594,-2.8594,-2.8595,-2.8584,-2.8607,-2.8621,-2.8608,-2.8608,-2.8608,-2.8608,-2.8608,-2.8608,-2.9414,-2.9358,-2.9325,-2.9243,-2.9199,-2.9136,-2.9103,-2.9055,-2.9008,-2.8925,-2.887,-2.8828,-2.8765,-2.8688,-2.8624,-2.8606,-2.858,-2.8583,-2.856,-2.8583,-2.8583,-2.8584,-2.8596,-2.8579,-2.8579,-2.8541,-2.8541,-2.8541]}]]